Location: Argonnex
(45.9500°N, 6.1333°E)
Time: 10:29:27
(UTC+00:00)

Cosmos 2266 Rocket - Pass Details

Date: 01 October 2023
Orbit: 933 x 1008 km, 82.9° (Epoch: 10 December)

Event Time Altitude Azimuth Distance (km) Brightness Sun altitude
Exits shadow 04:25:50 15° 279° (W) 2,416 5.5 -12.5°
Maximum altitude 04:27:38 17° 298° (WNW) 2,317 5.5 -12.2°
Drops below altitude 10° 04:31:36 10° 337° (NNW) 2,790 6.2 -11.5°
Sets 04:35:15 0° 357° (N) 3,750 7.1 -10.9°
